SCOUT G-1 R/B, 17071

Orbit data source: Space-Track

SCOUT G-1 R/B, 17071 is space debris in LEO originally from a launch on Fri, 14 Nov 1986 UTC launched from the Air Force Western Test Range (AFWTR). Debris objects in space refer to the collection of defunct objects orbiting the Earth. Examples of debris include non-operational satellites, rocket bodies, and fragments generated from explosions, collisions, or faulty payload assembly.

Loading next visibility...
Identifier
17071, 1986-088B
Orbit
LEO
Country
Flag of USUS
Related business
Manufacturer
Thiokol/TE
Mission
Spacecraft
Bus & Motor
STAR 20, Unknown motor
Mass
31 kg wet, 31 kg dry
Launch date (UTC)
1986-11-14 (40 years ago)
Launch vehicle
Unknown
Launch site
Air Force Western Test Range (AFWTR)
Object type
Payload
Rocket body
Debris
Shape & HBR
Cyl, 0.8 m
Radar Cross Section
0.687 m², Medium (>0.1 m² and < 1m²)

Expand to show TLE details & history
Last TLE update: 12 hours ago

TLE from 12 hours ago
0 SCOUT G-1 R/B
1 17071U 86088B   26235.75131446  .00000079  00000-0  69734-4 0  9994
2 17071  89.6099 164.8166 0040547  54.5227 305.9711 13.75640468995010
Epoch: 2026-08-23T18:01Z
TLE epoch observation values (Epoch: 2026-08-23T18:01:53.569Z)
Latitude
-0.00004°
Longitude
-77.69948°
Altitude
964.934 km
Speed
7.378 km/s
True Right ascension
10h 59m 15s
True Declination
0° 00' 00"
Sunlit
Object was in daylight at epoch
Visualization orbit readout
Latitude
Unknown
Longitude
Unknown
Altitude
Unknown
Speed
Unknown
Apparent Right ascension
Unknown
Apparent Declination
Unknown
Sunlit
N/A
Visualization observer readout
Local Sidereal Time
20:52:35
Azimuth
Unknown
Elevation
Unknown
Doppler factor
Unknown
Orbital elements
Apogee altitude
1,006.224 km
Perigee altitude
946.583 km
Semi-major axis
7,354.54 km
Eccentricity
0.00405
Inclination
89.6099°
RAAN
164.8166°
Arg. of periapsis
54.5227°
True anomaly
305.59395°
Mean anomaly
305.9711°
Eccentric anomaly
305.78263°
Mean motion
3.4412 °/min
Orbital period
104.61 mins
BSTAR
0.000069734
Loading maneuver chart data...
Computing Atmospheric mass density...
Loading historical data...
Loading historical data...
Loading historical data...
Loading historical data...
Loading historical data...
Loading historical data...
Loading historical data...
Other satellites on launch #88 in the year 1986 (1986-11-14 UTC)

Documentation

Showing up to 5 results
|